This is the latest recevied weather packets stored in our database for station/object K1BES. If no packets are shown the sender has not sent any weather packets the latest 1 day(s).
| Time | Temp. | Humidity | Pressure | Rain* | Wind** | Luminosity | Snow |
|---|---|---|---|---|---|---|---|
| 1778015025 | 27.78° C | 71% | 1016.2 hPa | 0 mm | 1.34 m/s, 2° | 343 W/m² | - |
| 1778014721 | 27.78° C | 70% | 1016.2 hPa | 0 mm | 1.34 m/s, 298° | 520 W/m² | - |
| 1778014420 | 27.78° C | 71% | 1016.1 hPa | 0 mm | 0.45 m/s, 13° | 379 W/m² | - |
| 1778014116 | 27.78° C | 71% | 1016.2 hPa | 0 mm | 1.34 m/s, 356° | 178 W/m² | - |
| 1778013814 | 27.78° C | 71% | 1016.2 hPa | 0 mm | 0.89 m/s, 353° | 629 W/m² | - |
| 1778013511 | 27.78° C | 70% | 1016.3 hPa | 0 mm | 2.24 m/s, 6° | 636 W/m² | - |
| 1778013207 | 27.78° C | 71% | 1016.2 hPa | 0 mm | 1.34 m/s, 350° | 225 W/m² | - |
| 1778012904 | 27.78° C | 71% | 1016.3 hPa | 0 mm | 0 m/s | 174 W/m² | - |
| 1778012600 | 27.78° C | 71% | 1016.3 hPa | 0 mm | 0.89 m/s, 35° | 84 W/m² | - |
| 1778012297 | 27.78° C | 71% | 1016.5 hPa | 0 mm | 1.34 m/s, 18° | 105 W/m² | - |
| 1778011994 | 27.78° C | 70% | 1016.5 hPa | 0 mm | 0.89 m/s, 0° | 113 W/m² | - |
| 1778011693 | 27.78° C | 69% | 1016.6 hPa | 0 mm | 0.89 m/s, 24° | 108 W/m² | - |
| 1778011389 | 28.33° C | 68% | 1016.5 hPa | 0 mm | 0.89 m/s, 356° | 198 W/m² | - |
| 1778011084 | 28.33° C | 69% | 1016.5 hPa | 0 mm | 0.45 m/s, 2° | 803 W/m² | - |
| 1778010782 | 28.33° C | 69% | 1016.5 hPa | 0 mm | 0.45 m/s, 10° | 783 W/m² | - |
| 1778010479 | 28.33° C | 68% | 1016.6 hPa | 0 mm | 0.45 m/s, 46° | 711 W/m² | - |
| 1778010176 | 28.89° C | 68% | 1016.4 hPa | 0 mm | 0.45 m/s, 19° | 776 W/m² | - |
| 1778009876 | 28.89° C | 67% | 1016.3 hPa | 0 mm | 0.45 m/s, 20° | 792 W/m² | - |
| 1778009575 | 28.89° C | 68% | 1016.3 hPa | 0 mm | 0.89 m/s, 344° | 792 W/m² | - |
| 1778009273 | 28.33° C | 69% | 1016.5 hPa | 0 mm | 0.45 m/s, 342° | 786 W/m² | - |
| 1778008970 | 28.33° C | 68% | 1016.5 hPa | 0 mm | 0.45 m/s, 22° | 794 W/m² | - |
| 1778008668 | 28.89° C | 67% | 1016.6 hPa | 0 mm | 0.45 m/s, 6° | 832 W/m² | - |
| 1778008366 | 28.89° C | 68% | 1016.5 hPa | 0 mm | 0.45 m/s, 18° | 784 W/m² | - |
| 1778008062 | 28.89° C | 68% | 1016.4 hPa | 0 mm | 0.45 m/s, 24° | 821 W/m² | - |
| 1778007757 | 28.89° C | 66% | 1016.5 hPa | 0 mm | 0.89 m/s, 20° | 831 W/m² | - |
* Rain latest hour (hover to see other rain measurements)
** Current wind speed in m/s (hover to see current wind gust speed)